| time (UTC) | temp C | wind direction | speed KPH | gust KPH | rain 1hr cm | rain 24hr cm | rain mn cm | humidity % | barometer mb |
| 20260906105554 | 20 | 131 | 0.0 | 0.0 | 0.00 | 0.00 | 0.00 | 95 | 1011.6 |
| 20260906105051 | 20 | 132 | 0.0 | 0.0 | 0.00 | 0.00 | 0.00 | 95 | 1011.5 |
| 20260906104549 | 20 | 129 | 0.0 | 0.0 | 0.00 | 0.00 | 0.00 | 95 | 1011.6 |
| 20260906104044 | 20 | 131 | 0.0 | 0.0 | 0.00 | 0.00 | 0.00 | 95 | 1011.7 |
| 20260906103542 | 20 | 131 | 0.0 | 0.0 | 0.00 | 0.00 | 0.00 | 95 | 1011.6 |
| 20260906103038 | 20 | 129 | 0.0 | 0.0 | 0.00 | 0.00 | 0.00 | 95 | 1011.5 |
| 20260906102537 | 20 | 131 | 0.0 | 0.0 | 0.00 | 0.00 | 0.00 | 95 | 1011.5 |
| 20260906102032 | 20 | 129 | 0.0 | 0.0 | 0.00 | 0.00 | 0.00 | 95 | 1011.6 |
| 20260906101527 | 20 | 129 | 0.0 | 0.0 | 0.00 | 0.00 | 0.00 | 95 | 1011.4 |
| 20260906101022 | 20 | 125 | 0.0 | 0.0 | 0.00 | 0.00 | 0.00 | 95 | 1011.5 |
| 20260906100517 | 20 | 131 | 0.0 | 0.0 | 0.00 | 0.00 | 0.00 | 95 | 1011.3 |
| 20260906100012 | 20 | 123 | 0.0 | 0.0 | 0.00 | 0.00 | 0.00 | 95 | 1011.3 |
| 20260906095507 | 20 | 116 | 0.0 | 0.0 | 0.00 | 0.00 | 0.00 | 95 | 1011.4 |
| 20260906095002 | 20 | 122 | 0.0 | 0.0 | 0.00 | 0.00 | 0.00 | 95 | 1011.2 |
| 20260906094501 | 20 | 132 | 0.0 | 0.0 | 0.00 | 0.00 | 0.00 | 95 | 1011.1 |
| 20260906093957 | 20 | 129 | 0.0 | 0.0 | 0.00 | 0.00 | 0.00 | 95 | 1010.9 |
| 20260906093454 | 20 | 131 | 0.0 | 0.0 | 0.00 | 0.00 | 0.00 | 95 | 1011.0 |
| 20260906092954 | 20 | 134 | 0.0 | 0.0 | 0.00 | 0.00 | 0.00 | 95 | 1011.1 |
| 20260906092453 | 20 | 134 | 0.0 | 0.0 | 0.00 | 0.00 | 0.00 | 95 | 1011.0 |
| 20260906091949 | 20 | 133 | 0.0 | 0.0 | 0.00 | 0.00 | 0.00 | 95 | 1010.5 |
| 20260906091444 | 20 | 131 | 0.0 | 0.0 | 0.00 | 0.00 | 0.00 | 95 | 1010.6 |
| 20260906090941 | 20 | 125 | 0.0 | 0.0 | 0.00 | 0.00 | 0.00 | 95 | 1010.9 |
| 20260906090436 | 20 | 130 | 0.0 | 0.0 | 0.00 | 0.00 | 0.00 | 95 | 1010.7 |
| 20260906085935 | 20 | 127 | 0.0 | 0.0 | 0.00 | 0.00 | 0.00 | 95 | 1010.6 |
| 20260906085435 | 20 | 131 | 0.0 | 0.0 | 0.00 | 0.00 | 0.00 | 95 | 1010.7 |
| 20260906084934 | 20 | 129 | 0.0 | 0.0 | 0.00 | 0.00 | 0.00 | 95 | 1010.7 |
| 20260906084430 | 20 | 120 | 0.0 | 0.0 | 0.00 | 0.00 | 0.00 | 95 | 1010.9 |
| 20260906083928 | 20 | 131 | 0.0 | 0.0 | 0.00 | 0.00 | 0.00 | 95 | 1010.7 |
| 20260906083424 | 20 | 126 | 0.0 | 0.0 | 0.00 | 0.00 | 0.00 | 95 | 1010.5 |
| 20260906082923 | 20 | 130 | 0.0 | 0.0 | 0.00 | 0.00 | 0.00 | 95 | 1010.8 |
| 20260906082419 | 20 | 133 | 0.0 | 0.0 | 0.00 | 0.00 | 0.00 | 95 | 1010.8 |
| 20260906081915 | 20 | 134 | 0.0 | 0.0 | 0.00 | 0.00 | 0.00 | 95 | 1010.6 |
| 20260906081410 | 20 | 131 | 0.0 | 0.0 | 0.00 | 0.00 | 0.00 | 95 | 1010.5 |
| 20260906080906 | 20 | 157 | 0.0 | 0.0 | 0.00 | 0.00 | 0.00 | 95 | 1010.7 |
| 20260906080402 | 20 | 151 | 0.0 | 0.0 | 0.00 | 0.00 | 0.00 | 95 | 1010.5 |
| 20260906075901 | 20 | 129 | 0.0 | 0.0 | 0.00 | 0.00 | 0.00 | 95 | 1010.4 |
| 20260906075356 | 20 | 130 | 0.0 | 0.0 | 0.00 | 0.00 | 0.00 | 95 | 1010.6 |
| 20260906074852 | 20 | 134 | 0.0 | 0.0 | 0.00 | 0.00 | 0.00 | 95 | 1010.6 |
| 20260906074351 | 20 | 134 | 0.0 | 0.0 | 0.00 | 0.00 | 0.00 | 95 | 1010.6 |
| 20260906073850 | 20 | 135 | 0.0 | 0.0 | 0.00 | 0.00 | 0.00 | 95 | 1010.8 |
| 20260906073345 | 20 | 141 | 0.0 | 0.0 | 0.00 | 0.00 | 0.00 | 95 | 1010.7 |
| 20260906072842 | 20 | 119 | 0.0 | 1.6 | 0.00 | 0.00 | 0.00 | 95 | 1011.1 |
| 20260906072337 | 20 | 131 | 0.0 | 0.0 | 0.00 | 0.00 | 0.00 | 95 | 1011.1 |
| 20260906071833 | 20 | 122 | 0.0 | 0.0 | 0.00 | 0.00 | 0.00 | 95 | 1011.0 |
| 20260906071328 | 20 | 133 | 0.0 | 0.0 | 0.00 | 0.00 | 0.00 | 95 | 1010.9 |
| 20260906070824 | 20 | 136 | 0.0 | 1.6 | 0.00 | 0.00 | 0.00 | 95 | 1011.0 |
| 20260906070319 | 20 | 137 | 0.0 | 0.0 | 0.00 | 0.00 | 0.00 | 95 | 1011.0 |
| 20260906065814 | 20 | 129 | 0.0 | 0.0 | 0.00 | 0.00 | 0.00 | 95 | 1010.9 |
| 20260906065309 | 20 | 127 | 0.0 | 1.6 | 0.00 | 0.00 | 0.00 | 95 | 1010.9 |
| 20260906064805 | 20 | 147 | 0.0 | 0.0 | 0.00 | 0.00 | 0.00 | 95 | 1010.9 |
| 20260906064300 | 20 | 153 | 0.0 | 0.0 | 0.00 | 0.00 | 0.00 | 95 | 1010.8 |
| 20260906063755 | 20 | 139 | 0.0 | 1.6 | 0.00 | 0.00 | 0.00 | 95 | 1010.9 |
| 20260906063251 | 20 | 132 | 0.0 | 0.0 | 0.00 | 0.00 | 0.00 | 95 | 1010.7 |
| 20260906062746 | 20 | 130 | 0.0 | 0.0 | 0.00 | 0.00 | 0.00 | 95 | 1010.6 |
| 20260906062245 | 20 | 156 | 1.6 | 4.8 | 0.00 | 0.00 | 0.00 | 95 | 1010.7 |
| 20260906061741 | 20 | 169 | 0.0 | 0.0 | 0.00 | 0.00 | 0.00 | 95 | 1010.9 |
| 20260906061237 | 20 | 144 | 0.0 | 0.0 | 0.00 | 0.00 | 0.00 | 95 | 1011.0 |
| 20260906060732 | 20 | 132 | 0.0 | 0.0 | 0.00 | 0.00 | 0.00 | 95 | 1010.7 |
| 20260906060230 | 20 | 130 | 0.0 | 0.0 | 0.00 | 0.00 | 0.00 | 95 | 1010.8 |
| 20260906055725 | 20 | 133 | 0.0 | 0.0 | 0.00 | 0.00 | 0.00 | 95 | 1010.8 |
| 20260906055220 | 20 | 134 | 0.0 | 0.0 | 0.00 | 0.00 | 0.00 | 95 | 1010.8 |
| 20260906054715 | 20 | 131 | 0.0 | 0.0 | 0.00 | 0.00 | 0.00 | 95 | 1010.7 |
| 20260906054210 | 20 | 131 | 0.0 | 0.0 | 0.00 | 0.00 | 0.00 | 95 | 1010.8 |
| 20260906053707 | 20 | 133 | 0.0 | 0.0 | 0.00 | 0.00 | 0.00 | 95 | 1010.9 |
| 20260906053202 | 20 | 132 | 0.0 | 0.0 | 0.00 | 0.00 | 0.00 | 95 | 1011.0 |
| 20260906052657 | 20 | 126 | 0.0 | 0.0 | 0.00 | 0.00 | 0.00 | 95 | 1011.0 |
| 20260906052153 | 20 | 131 | 0.0 | 0.0 | 0.00 | 0.00 | 0.00 | 95 | 1011.3 |
| 20260906051650 | 20 | 133 | 0.0 | 0.0 | 0.00 | 0.00 | 0.00 | 95 | 1011.3 |
| 20260906051149 | 20 | 132 | 0.0 | 0.0 | 0.00 | 0.00 | 0.00 | 95 | 1011.6 |
| 20260906050645 | 20 | 132 | 0.0 | 0.0 | 0.00 | 0.00 | 0.00 | 95 | 1011.5 |
| 20260906050139 | 20 | 120 | 0.0 | 0.0 | 0.00 | 0.00 | 0.00 | 95 | 1011.6 |
| 20260906045638 | 20 | 130 | 0.0 | 0.0 | 0.00 | 0.00 | 0.00 | 95 | 1011.3 |
| 20260906045133 | 20 | 137 | 0.0 | 0.0 | 0.00 | 0.00 | 0.00 | 95 | 1011.5 |
| 20260906044629 | 20 | 134 | 0.0 | 0.0 | 0.00 | 0.00 | 0.00 | 95 | 1011.6 |
| 20260906044125 | 20 | 134 | 0.0 | 0.0 | 0.00 | 0.00 | 0.00 | 95 | 1011.8 |
| 20260906043621 | 20 | 134 | 0.0 | 0.0 | 0.00 | 0.00 | 0.00 | 95 | 1011.6 |
| 20260906043116 | 21 | 133 | 0.0 | 0.0 | 0.00 | 0.00 | 0.00 | 95 | 1011.5 |
| 20260906042615 | 21 | 140 | 0.0 | 0.0 | 0.00 | 0.00 | 0.00 | 95 | 1011.6 |
| 20260906042109 | 21 | 126 | 0.0 | 0.0 | 0.00 | 0.00 | 0.00 | 95 | 1011.6 |
| 20260906041606 | 21 | 136 | 0.0 | 0.0 | 0.00 | 0.00 | 0.00 | 95 | 1011.6 |
| 20260906041100 | 21 | 132 | 0.0 | 0.0 | 0.00 | 0.00 | 0.00 | 95 | 1011.4 |
| 20260906040556 | 21 | 121 | 0.0 | 0.0 | 0.00 | 0.00 | 0.00 | 95 | 1011.7 |
| 20260906040051 | 21 | 132 | 0.0 | 0.0 | 0.00 | 0.00 | 0.00 | 95 | 1011.6 |
| 20260906035547 | 21 | 130 | 0.0 | 0.0 | 0.00 | 1.47 | 1.47 | 95 | 1011.6 |
| 20260906035042 | 21 | 122 | 0.0 | 0.0 | 0.00 | 1.47 | 1.47 | 95 | 1011.7 |
| 20260906034542 | 20 | 132 | 0.0 | 0.0 | 0.00 | 1.47 | 1.47 | 95 | 1011.7 |
| 20260906034037 | 21 | 131 | 0.0 | 0.0 | 0.00 | 1.47 | 1.47 | 95 | 1011.7 |
| 20260906033532 | 21 | 127 | 0.0 | 0.0 | 0.00 | 1.47 | 1.47 | 95 | 1011.8 |
| 20260906033028 | 21 | 120 | 0.0 | 0.0 | 0.00 | 1.47 | 1.47 | 95 | 1011.7 |
| 20260906032525 | 21 | 88 | 0.0 | 0.0 | 0.00 | 1.47 | 1.47 | 95 | 1011.9 |
| 20260906032024 | 21 | 135 | 0.0 | 0.0 | 0.00 | 1.47 | 1.47 | 95 | 1011.8 |
| 20260906031520 | 21 | 138 | 0.0 | 0.0 | 0.00 | 1.47 | 1.47 | 95 | 1011.9 |
| 20260906031010 | 21 | 124 | 0.0 | 0.0 | 0.00 | 1.47 | 1.47 | 95 | 1012.1 |
| 20260906030509 | 21 | 131 | 0.0 | 0.0 | 0.00 | 1.47 | 1.47 | 95 | 1012.1 |
| 20260906030009 | 21 | 125 | 0.0 | 0.0 | 0.00 | 1.47 | 1.47 | 95 | 1012.1 |
| 20260906025508 | 21 | 134 | 0.0 | 0.0 | 0.00 | 1.47 | 1.47 | 95 | 1012.0 |
| 20260906025006 | 21 | 116 | 0.0 | 1.6 | 0.00 | 1.47 | 1.47 | 95 | 1011.8 |
| 20260906024502 | 21 | 123 | 0.0 | 0.0 | 0.00 | 1.47 | 1.47 | 95 | 1012.1 |
| 20260906023956 | 21 | 132 | 0.0 | 0.0 | 0.00 | 1.47 | 1.47 | 95 | 1011.9 |
| 20260906023452 | 21 | 131 | 0.0 | 1.6 | 0.00 | 1.47 | 1.47 | 95 | 1012.1 |
| 20260906022947 | 21 | 118 | 1.6 | 1.6 | 0.00 | 1.47 | 1.47 | 95 | 1012.1 |
| 20260906022442 | 21 | 134 | 0.0 | 0.0 | 0.00 | 1.47 | 1.47 | 95 | 1011.9 |
| 20260906021937 | 21 | 135 | 0.0 | 0.0 | 0.00 | 1.47 | 1.47 | 95 | 1011.9 |
| 20260906021432 | 21 | 130 | 0.0 | 0.0 | 0.00 | 1.47 | 1.47 | 95 | 1012.1 |
| 20260906020926 | 21 | 133 | 0.0 | 0.0 | 0.00 | 1.47 | 1.47 | 95 | 1011.9 |
| 20260906020421 | 21 | 133 | 0.0 | 0.0 | 0.00 | 1.47 | 1.47 | 95 | 1011.8 |
| 20260906015921 | 21 | 132 | 0.0 | 0.0 | 0.00 | 1.47 | 1.47 | 95 | 1011.5 |
| 20260906015415 | 21 | 121 | 1.6 | 1.6 | 0.00 | 1.47 | 1.47 | 95 | 1011.6 |
| 20260906014914 | 21 | 139 | 0.0 | 0.0 | 0.00 | 1.47 | 1.47 | 95 | 1011.6 |
| 20260906014409 | 21 | 131 | 0.0 | 0.0 | 0.00 | 1.47 | 1.47 | 95 | 1011.7 |
| 20260906013905 | 21 | 123 | 1.6 | 1.6 | 0.00 | 1.47 | 1.47 | 95 | 1011.5 |
| 20260906013401 | 21 | 121 | 0.0 | 0.0 | 0.00 | 1.47 | 1.47 | 95 | 1011.6 |
| 20260906012856 | 21 | 130 | 0.0 | 1.6 | 0.00 | 1.47 | 1.47 | 95 | 1011.5 |
| 20260906012350 | 21 | 128 | 0.0 | 1.6 | 0.00 | 1.47 | 1.47 | 95 | 1011.4 |
| 20260906011850 | 21 | 132 | 0.0 | 1.6 | 0.00 | 1.47 | 1.47 | 95 | 1011.5 |
| 20260906011345 | 21 | 132 | 0.0 | 3.2 | 0.00 | 1.47 | 1.47 | 95 | 1011.4 |
| 20260906010841 | 21 | 134 | 0.0 | 0.0 | 0.00 | 1.47 | 1.47 | 95 | 1011.4 |
| 20260906010337 | 21 | 139 | 1.6 | 1.6 | 0.00 | 1.47 | 1.47 | 95 | 1011.6 |
| 20260906005832 | 21 | 138 | 0.0 | 3.2 | 0.00 | 1.47 | 1.47 | 95 | 1011.6 |
| 20260906005331 | 21 | 133 | 0.0 | 1.6 | 0.00 | 1.47 | 1.47 | 95 | 1011.6 |
| 20260906004830 | 21 | 98 | 1.6 | 3.2 | 0.00 | 1.47 | 1.47 | 95 | 1011.8 |
| 20260906004330 | 21 | 131 | 0.0 | 0.0 | 0.00 | 1.47 | 1.47 | 95 | 1011.8 |
| 20260906003825 | 21 | 131 | 0.0 | 1.6 | 0.00 | 1.47 | 1.47 | 95 | 1011.7 |
| 20260906003321 | 21 | 123 | 0.0 | 1.6 | 0.00 | 1.47 | 1.47 | 95 | 1011.6 |
| 20260906002816 | 21 | 119 | 0.0 | 0.0 | 0.00 | 1.47 | 1.47 | 95 | 1011.7 |
| 20260906002315 | 21 | 159 | 0.0 | 0.0 | 0.00 | 1.47 | 1.47 | 95 | 1011.7 |
| 20260906001811 | 21 | 177 | 3.2 | 3.2 | 0.00 | 1.47 | 1.47 | 95 | 1011.6 |
| 20260906001306 | 21 | 152 | 1.6 | 1.6 | 0.00 | 1.47 | 1.47 | 95 | 1011.4 |
| 20260906000801 | 21 | 320 | 4.8 | 9.7 | 0.00 | 1.47 | 1.47 | 95 | 1011.2 |
| 20260906000256 | 21 | 239 | 6.4 | 8.0 | 0.00 | 1.47 | 1.47 | 95 | 1010.8 |
| 20260905235751 | 21 | 181 | 1.6 | 1.6 | 0.00 | 1.47 | 1.47 | 95 | 1010.5 |
| 20260905235250 | 21 | 147 | 0.0 | 1.6 | 0.00 | 1.47 | 1.47 | 95 | 1010.3 |
| 20260905234746 | 21 | 135 | 0.0 | 0.0 | 0.00 | 1.47 | 1.47 | 95 | 1010.4 |
| 20260905234241 | 21 | 128 | 0.0 | 0.0 | 0.00 | 1.47 | 1.47 | 95 | 1010.4 |
| 20260905233736 | 21 | 140 | 1.6 | 3.2 | 0.00 | 1.47 | 1.47 | 95 | 1010.3 |
| 20260905233236 | 21 | 117 | 1.6 | 3.2 | 0.00 | 1.47 | 1.47 | 95 | 1010.1 |
| 20260905232730 | 21 | 130 | 0.0 | 1.6 | 0.00 | 1.47 | 1.47 | 95 | 1010.3 |
| 20260905232226 | 21 | 103 | 1.6 | 3.2 | 0.00 | 1.47 | 1.47 | 95 | 1010.4 |
| 20260905231722 | 21 | 115 | 1.6 | 3.2 | 0.00 | 1.47 | 1.47 | 95 | 1010.6 |
| 20260905231217 | 21 | 303 | 1.6 | 1.6 | 0.00 | 1.47 | 1.47 | 95 | 1010.3 |
| 20260905230713 | 21 | 324 | 1.6 | 3.2 | 0.00 | 1.47 | 1.47 | 95 | 1010.1 |
| 20260905230210 | 21 | 243 | 3.2 | 4.8 | 0.00 | 1.47 | 1.47 | 95 | 1010.4 |
| 20260905225705 | 21 | 118 | 3.2 | 8.0 | 0.00 | 1.47 | 1.47 | 95 | 1010.2 |
| 20260905225200 | 21 | 301 | 4.8 | 8.0 | 0.00 | 1.47 | 1.47 | 95 | 1010.0 |
| 20260905224659 | 22 | 262 | 8.0 | 11.3 | 0.00 | 1.47 | 1.47 | 95 | 1010.0 |
| 20260905224154 | 22 | 241 | 4.8 | 8.0 | 0.00 | 1.47 | 1.47 | 95 | 1009.4 |
| 20260905223650 | 22 | 172 | 1.6 | 1.6 | 0.00 | 1.47 | 1.47 | 95 | 1009.5 |
| 20260905223147 | 21 | 135 | 0.0 | 0.0 | 0.00 | 1.47 | 1.47 | 95 | 1009.2 |
| 20260905222643 | 21 | 124 | 0.0 | 1.6 | 0.00 | 1.47 | 1.47 | 95 | 1009.2 |
| 20260905222143 | 21 | 149 | 1.6 | 1.6 | 0.00 | 1.47 | 1.47 | 95 | 1008.8 |
| 20260905221638 | 21 | 125 | 0.0 | 1.6 | 0.00 | 1.47 | 1.47 | 95 | 1009.1 |
| 20260905221135 | 21 | 150 | 1.6 | 3.2 | 0.13 | 1.47 | 1.47 | 95 | 1008.8 |
| 20260905220630 | 21 | 88 | 3.2 | 4.8 | 0.13 | 1.47 | 1.47 | 95 | 1008.9 |
| 20260905220126 | 21 | 97 | 1.6 | 3.2 | 0.00 | 1.45 | 1.45 | 95 | 1009.3 |
| 20260905215626 | 21 | 128 | 3.2 | 4.8 | 0.00 | 1.45 | 1.45 | 95 | 1009.6 |
| 20260905215121 | 21 | 117 | 1.6 | 3.2 | 0.00 | 1.45 | 1.45 | 95 | 1010.1 |
| 20260905214617 | 21 | 144 | 3.2 | 8.0 | 0.00 | 1.45 | 1.45 | 95 | 1010.3 |
| 20260905214112 | 21 | 84 | 3.2 | 3.2 | 0.00 | 1.45 | 1.45 | 95 | 1010.4 |
| 20260905213607 | 21 | 102 | 4.8 | 8.0 | 0.00 | 1.45 | 1.45 | 95 | 1010.3 |
| 20260905213102 | 21 | 1 | 4.8 | 4.8 | 0.00 | 1.45 | 1.45 | 95 | 1010.2 |
| 20260905212557 | 21 | 124 | 1.6 | 1.6 | 0.00 | 1.45 | 1.45 | 95 | 1009.9 |
| 20260905212056 | 20 | 135 | 0.0 | 4.8 | 0.00 | 1.45 | 1.45 | 95 | 1010.2 |
| 20260905211552 | 20 | 212 | 3.2 | 9.7 | 0.00 | 1.45 | 1.45 | 95 | 1010.3 |
| 20260905211047 | 20 | 235 | 6.4 | 8.0 | 0.18 | 1.45 | 1.45 | 95 | 1011.0 |
| 20260905210543 | 20 | 241 | 4.8 | 8.0 | 0.13 | 1.42 | 1.42 | 95 | 1010.9 |
| 20260905210038 | 20 | 309 | 1.6 | 8.0 | 1.68 | 1.42 | 1.42 | 95 | 1011.4 |
| 20260905205537 | 20 | 120 | 11.3 | 25.7 | 5.82 | 1.40 | 1.40 | 95 | 1011.4 |
| 20260905205037 | 20 | 76 | 12.9 | 17.7 | 5.33 | 1.12 | 1.12 | 95 | 1012.6 |
| 20260905204532 | 22 | 122 | 24.1 | 32.2 | 2.39 | 0.43 | 0.43 | 95 | 1012.3 |
| 20260905204027 | 22 | 78 | 25.7 | 43.5 | 1.37 | 0.23 | 0.23 | 95 | 1011.2 |
| 20260905203526 | 25 | 101 | 16.1 | 29.0 | 0.18 | 0.03 | 0.03 | 89 | 1010.3 |
| 20260905203022 | 32 | 131 | 20.9 | 35.4 | 0.00 | 0.00 | 0.00 | 71 | 1010.9 |
| 20260905202517 | 32 | 125 | 0.0 | 3.2 | 0.00 | 0.00 | 0.00 | 68 | 1009.0 |
| 20260905202012 | 33 | 99 | 0.0 | 3.2 | 0.00 | 0.00 | 0.00 | 68 | 1009.1 |
| 20260905201508 | 33 | 226 | 1.6 | 8.0 | 0.00 | 0.00 | 0.00 | 66 | 1008.8 |
| 20260905201007 | 33 | 240 | 11.3 | 12.9 | 0.00 | 0.00 | 0.00 | 64 | 1008.9 |
| 20260905200503 | 33 | 167 | 1.6 | 3.2 | 0.00 | 0.00 | 0.00 | 67 | 1008.7 |
| 20260905200002 | 34 | 178 | 3.2 | 4.8 | 0.00 | 0.00 | 0.00 | 67 | 1008.8 |
| 20260905195457 | 35 | 329 | 1.6 | 4.8 | 0.00 | 0.00 | 0.00 | 63 | 1008.7 |
| 20260905194952 | 35 | 245 | 3.2 | 4.8 | 0.00 | 0.00 | 0.00 | 61 | 1008.9 |
| 20260905194452 | 35 | 315 | 4.8 | 9.7 | 0.00 | 0.00 | 0.00 | 60 | 1009.1 |
| 20260905193946 | 35 | 157 | 3.2 | 3.2 | 0.00 | 0.00 | 0.00 | 60 | 1009.3 |
| 20260905193446 | 35 | 98 | 1.6 | 8.0 | 0.00 | 0.00 | 0.00 | 61 | 1009.3 |
| 20260905192942 | 36 | 62 | 3.2 | 4.8 | 0.00 | 0.00 | 0.00 | 62 | 1009.2 |
| 20260905192436 | 35 | 307 | 3.2 | 4.8 | 0.00 | 0.00 | 0.00 | 62 | 1009.1 |
| 20260905191932 | 34 | 334 | 6.4 | 8.0 | 0.00 | 0.00 | 0.00 | 63 | 1009.3 |
| 20260905191426 | 34 | 196 | 3.2 | 4.8 | 0.00 | 0.00 | 0.00 | 64 | 1009.2 |
| 20260905190926 | 33 | 176 | 1.6 | 1.6 | 0.00 | 0.00 | 0.00 | 64 | 1009.2 |
| 20260905190423 | 34 | 102 | 1.6 | 3.2 | 0.00 | 0.00 | 0.00 | 64 | 1009.5 |
| 20260905185922 | 35 | 242 | 4.8 | 8.0 | 0.00 | 0.00 | 0.00 | 62 | 1009.5 |
| 20260905185418 | 35 | 75 | 1.6 | 8.0 | 0.00 | 0.00 | 0.00 | 61 | 1009.4 |
| 20260905184916 | 35 | 301 | 4.8 | 9.7 | 0.00 | 0.00 | 0.00 | 60 | 1009.6 |
| 20260905184411 | 35 | 111 | 1.6 | 3.2 | 0.00 | 0.00 | 0.00 | 62 | 1009.7 |
| 20260905183909 | 34 | 352 | 3.2 | 9.7 | 0.00 | 0.00 | 0.00 | 63 | 1009.9 |
| 20260905183404 | 34 | 146 | 1.6 | 3.2 | 0.00 | 0.00 | 0.00 | 62 | 1009.9 |
| 20260905182900 | 35 | 313 | 3.2 | 9.7 | 0.00 | 0.00 | 0.00 | 63 | 1009.9 |
| 20260905182358 | 35 | 335 | 4.8 | 9.7 | 0.00 | 0.00 | 0.00 | 63 | 1009.8 |
| 20260905181855 | 35 | 306 | 4.8 | 8.0 | 0.00 | 0.00 | 0.00 | 60 | 1010.1 |
| 20260905181355 | 35 | 94 | 4.8 | 11.3 | 0.00 | 0.00 | 0.00 | 63 | 1010.1 |
| 20260905180854 | 35 | 325 | 4.8 | 8.0 | 0.00 | 0.00 | 0.00 | 62 | 1010.2 |
| 20260905180349 | 35 | 104 | 1.6 | 4.8 | 0.00 | 0.00 | 0.00 | 58 | 1010.3 |
| 20260905175844 | 35 | 256 | 4.8 | 9.7 | 0.00 | 0.00 | 0.00 | 61 | 1010.7 |
| 20260905175344 | 35 | 268 | 3.2 | 8.0 | 0.00 | 0.00 | 0.00 | 61 | 1010.8 |
| 20260905174839 | 35 | 288 | 9.7 | 12.9 | 0.00 | 0.00 | 0.00 | 61 | 1011.1 |
| 20260905174335 | 35 | 130 | 1.6 | 3.2 | 0.00 | 0.00 | 0.00 | 64 | 1010.8 |
| 20260905173830 | 34 | 106 | 8.0 | 11.3 | 0.00 | 0.00 | 0.00 | 62 | 1011.2 |
| 20260905173326 | 34 | 159 | 3.2 | 9.7 | 0.00 | 0.00 | 0.00 | 63 | 1011.2 |
| 20260905172826 | 35 | 267 | 8.0 | 9.7 | 0.00 | 0.00 | 0.00 | 60 | 1011.4 |
| 20260905172324 | 35 | 123 | 1.6 | 4.8 | 0.00 | 0.00 | 0.00 | 60 | 1011.4 |
| 20260905171820 | 35 | 336 | 8.0 | 9.7 | 0.00 | 0.00 | 0.00 | 61 | 1011.3 |
| 20260905171317 | 35 | 129 | 0.0 | 4.8 | 0.00 | 0.00 | 0.00 | 65 | 1011.3 |
| 20260905170813 | 34 | 63 | 6.4 | 8.0 | 0.00 | 0.00 | 0.00 | 64 | 1011.5 |
| 20260905170309 | 35 | 42 | 4.8 | 8.0 | 0.00 | 0.00 | 0.00 | 66 | 1011.5 |
| 20260905165807 | 34 | 74 | 3.2 | 8.0 | 0.00 | 0.00 | 0.00 | 65 | 1011.6 |
| 20260905165306 | 34 | 104 | 3.2 | 9.7 | 0.00 | 0.00 | 0.00 | 64 | 1011.8 |
| 20260905164757 | 34 | 327 | 3.2 | 9.7 | 0.00 | 0.00 | 0.00 | 65 | 1011.6 |
| 20260905164252 | 34 | 309 | 9.7 | 11.3 | 0.00 | 0.00 | 0.00 | 66 | 1011.8 |
| 20260905163748 | 33 | 151 | 1.6 | 4.8 | 0.00 | 0.00 | 0.00 | 65 | 1012.1 |
| 20260905163244 | 34 | 163 | 4.8 | 8.0 | 0.00 | 0.00 | 0.00 | 65 | 1012.0 |
| 20260905162740 | 34 | 140 | 0.0 | 3.2 | 0.00 | 0.00 | 0.00 | 66 | 1012.1 |
| 20260905162239 | 33 | 115 | 1.6 | 4.8 | 0.00 | 0.00 | 0.00 | 66 | 1012.3 |
| 20260905161734 | 33 | 107 | 1.6 | 4.8 | 0.00 | 0.00 | 0.00 | 68 | 1012.2 |
| 20260905161232 | 33 | 311 | 3.2 | 4.8 | 0.00 | 0.00 | 0.00 | 68 | 1012.4 |
| 20260905160726 | 33 | 357 | 3.2 | 4.8 | 0.00 | 0.00 | 0.00 | 68 | 1012.5 |
| 20260905160225 | 33 | 6 | 6.4 | 9.7 | 0.00 | 0.00 | 0.00 | 69 | 1012.4 |
| 20260905155720 | 33 | 105 | 3.2 | 3.2 | 0.00 | 0.00 | 0.00 | 69 | 1012.4 |
| 20260905155219 | 32 | 92 | 3.2 | 4.8 | 0.00 | 0.00 | 0.00 | 69 | 1012.7 |
| 20260905154713 | 32 | 61 | 4.8 | 8.0 | 0.00 | 0.00 | 0.00 | 71 | 1012.4 |
| 20260905154209 | 32 | 350 | 4.8 | 11.3 | 0.00 | 0.00 | 0.00 | 68 | 1012.6 |
| 20260905153705 | 32 | 44 | 6.4 | 9.7 | 0.00 | 0.00 | 0.00 | 70 | 1012.4 |
| 20260905153200 | 32 | 111 | 1.6 | 9.7 | 0.00 | 0.00 | 0.00 | 72 | 1012.6 |
| 20260905152655 | 32 | 98 | 1.6 | 4.8 | 0.00 | 0.00 | 0.00 | 73 | 1012.7 |
| 20260905152149 | 32 | 69 | 4.8 | 8.0 | 0.00 | 0.00 | 0.00 | 72 | 1012.6 |
| 20260905151644 | 32 | 86 | 3.2 | 3.2 | 0.00 | 0.00 | 0.00 | 73 | 1012.5 |
| 20260905151141 | 32 | 101 | 4.8 | 8.0 | 0.00 | 0.00 | 0.00 | 73 | 1012.5 |
| 20260905150635 | 32 | 290 | 4.8 | 11.3 | 0.00 | 0.00 | 0.00 | 74 | 1012.7 |
| 20260905150133 | 31 | 27 | 4.8 | 8.0 | 0.00 | 0.00 | 0.00 | 74 | 1012.5 |
| 20260905145632 | 31 | 17 | 4.8 | 8.0 | 0.00 | 0.00 | 0.00 | 74 | 1012.4 |
| 20260905145131 | 31 | 84 | 1.6 | 8.0 | 0.00 | 0.00 | 0.00 | 75 | 1012.9 |
| 20260905144626 | 31 | 30 | 3.2 | 11.3 | 0.00 | 0.00 | 0.00 | 74 | 1012.6 |
| 20260905144125 | 31 | 308 | 8.0 | 9.7 | 0.00 | 0.00 | 0.00 | 75 | 1012.7 |
| 20260905143620 | 31 | 175 | 1.6 | 3.2 | 0.00 | 0.00 | 0.00 | 77 | 1012.6 |
| 20260905143115 | 30 | 81 | 4.8 | 4.8 | 0.00 | 0.00 | 0.00 | 78 | 1012.8 |
| 20260905142613 | 30 | 36 | 4.8 | 9.7 | 0.00 | 0.00 | 0.00 | 78 | 1012.8 |
| 20260905142108 | 31 | 137 | 3.2 | 4.8 | 0.00 | 0.00 | 0.00 | 78 | 1012.6 |
| 20260905141607 | 30 | 105 | 1.6 | 3.2 | 0.00 | 0.00 | 0.00 | 79 | 1012.7 |
| 20260905141104 | 30 | 70 | 4.8 | 4.8 | 0.00 | 0.00 | 0.00 | 78 | 1012.8 |
| 20260905140559 | 30 | 80 | 1.6 | 9.7 | 0.00 | 0.00 | 0.00 | 81 | 1012.7 |
| 20260905140058 | 30 | 43 | 4.8 | 8.0 | 0.00 | 0.00 | 0.00 | 80 | 1012.9 |
| 20260905135553 | 30 | 60 | 4.8 | 8.0 | 0.00 | 0.00 | 0.00 | 80 | 1012.9 |
| 20260905135053 | 29 | 135 | 1.6 | 1.6 | 0.00 | 0.00 | 0.00 | 81 | 1012.7 |
| 20260905134548 | 29 | 69 | 1.6 | 4.8 | 0.00 | 0.00 | 0.00 | 83 | 1012.9 |
| 20260905134047 | 29 | 137 | 0.0 | 3.2 | 0.00 | 0.00 | 0.00 | 84 | 1012.8 |
| 20260905133543 | 29 | 103 | 1.6 | 1.6 | 0.00 | 0.00 | 0.00 | 85 | 1012.9 |
| 20260905133042 | 28 | 259 | 4.8 | 9.7 | 0.00 | 0.00 | 0.00 | 87 | 1013.1 |
| 20260905132542 | 27 | 67 | 4.8 | 11.3 | 0.00 | 0.00 | 0.00 | 88 | 1013.0 |
| 20260905132037 | 27 | 74 | 4.8 | 11.3 | 0.00 | 0.00 | 0.00 | 88 | 1013.0 |
| 20260905131533 | 27 | 337 | 8.0 | 11.3 | 0.00 | 0.00 | 0.00 | 88 | 1012.8 |
| 20260905131028 | 27 | 97 | 0.0 | 8.0 | 0.00 | 0.00 | 0.00 | 89 | 1012.7 |
| 20260905130527 | 27 | 135 | 3.2 | 9.7 | 0.00 | 0.00 | 0.00 | 89 | 1013.2 |
| 20260905130022 | 27 | 322 | 8.0 | 11.3 | 0.00 | 0.00 | 0.00 | 89 | 1013.1 |
| 20260905125521 | 27 | 44 | 4.8 | 9.7 | 0.00 | 0.00 | 0.00 | 91 | 1013.2 |
| 20260905125017 | 26 | 82 | 3.2 | 4.8 | 0.00 | 0.00 | 0.00 | 92 | 1013.1 |
| 20260905124514 | 26 | 18 | 1.6 | 4.8 | 0.00 | 0.00 | 0.00 | 92 | 1013.1 |
| 20260905124009 | 26 | 287 | 3.2 | 12.9 | 0.00 | 0.00 | 0.00 | 92 | 1013.1 |
| 20260905123505 | 26 | 299 | 8.0 | 11.3 | 0.00 | 0.00 | 0.00 | 92 | 1013.0 |
| 20260905123001 | 26 | 60 | 3.2 | 11.3 | 0.00 | 0.00 | 0.00 | 93 | 1013.0 |
| 20260905122455 | 26 | 81 | 4.8 | 8.0 | 0.00 | 0.00 | 0.00 | 94 | 1013.1 |
| 20260905121950 | 26 | 155 | 3.2 | 8.0 | 0.00 | 0.00 | 0.00 | 94 | 1013.0 |
| 20260905121445 | 26 | 359 | 6.4 | 8.0 | 0.00 | 0.00 | 0.00 | 95 | 1013.2 |
| 20260905120944 | 26 | 27 | 4.8 | 9.7 | 0.00 | 0.00 | 0.00 | 95 | 1013.3 |
| 20260905120439 | 25 | 67 | 4.8 | 9.7 | 0.00 | 0.00 | 0.00 | 95 | 1013.2 |
| 20260905115934 | 25 | 217 | 1.6 | 8.0 | 0.00 | 0.00 | 0.00 | 95 | 1012.8 |
| 20260905115433 | 25 | 278 | 4.8 | 8.0 | 0.00 | 0.00 | 0.00 | 95 | 1012.8 |
| 20260905114929 | 25 | 339 | 3.2 | 8.0 | 0.00 | 0.00 | 0.00 | 95 | 1012.8 |
| 20260905114428 | 25 | 10 | 3.2 | 4.8 | 0.00 | 0.00 | 0.00 | 95 | 1013.0 |
| 20260905113927 | 25 | 124 | 3.2 | 8.0 | 0.00 | 0.00 | 0.00 | 95 | 1012.7 |
| 20260905113423 | 25 | 130 | 1.6 | 8.0 | 0.00 | 0.00 | 0.00 | 95 | 1012.7 |
| 20260905112918 | 25 | 134 | 3.2 | 11.3 | 0.00 | 0.00 | 0.00 | 95 | 1012.7 |
| 20260905112413 | 25 | 224 | 3.2 | 4.8 | 0.00 | 0.00 | 0.00 | 95 | 1012.4 |
| 20260905111908 | 25 | 295 | 3.2 | 3.2 | 0.00 | 0.00 | 0.00 | 95 | 1012.5 |
| 20260905111408 | 25 | 164 | 4.8 | 8.0 | 0.00 | 0.00 | 0.00 | 95 | 1012.3 |
| 20260905110902 | 25 | 333 | 4.8 | 8.0 | 0.00 | 0.00 | 0.00 | 95 | 1012.4 |
| 20260905110356 | 25 | 184 | 3.2 | 8.0 | 0.00 | 0.00 | 0.00 | 95 | 1012.6 |
| 20260905105851 | 25 | 41 | 4.8 | 8.0 | 0.00 | 0.00 | 0.00 | 95 | 1012.5 |